リード彗星

344P/Read (1995)

English version
Home page
Updated on December 25, 2016

---------------------------------------------------------------------

・ プロフィール

・ 軌道要素

Epoch 1995 Feb. 12.0 TT = JDT 2449760.5
T 1995 Mar. 1.47123 TT                                  MPCW
q   2.8430549            (2000.0)            P               Q
n   0.09076944     Peri.  140.43047     +0.58522073     -0.80861239
a   4.9035388      Node   273.66823     +0.72775092     +0.55668158
e   0.4202035      Incl.    3.47681     +0.35762451     +0.19039860
P  10.86
From 289 observations 1951 Dec. 1-2016 Oct. 24, mean residual 0".6.

・ 光度変化

        m1 = 5.0 + 5 logΔ + 25.0 log r

---------------------------------------------------------------------

軌道要素はM.P.E.C. 2016-U66に掲載されたものです。
光度グラフはComet for Windowsで作成したものです。

---------------------------------------------------------------------

Copyright(C) Seiichi Yoshida (comet@aerith.net). All rights reserved.